Tracking 25709 objects as of 23-May-2022
HD Live streaming from Space Station
objects crossing your sky now

SL-14 DEB

Track SL-14 DEB now!
10-day predictions


NORAD ID: 45276
Int'l Code: 1991-056N
Perigee: 1,129.4 km
Apogee: 1,202.7 km
Inclination: 82.6 °
Period: 108.5 minutes
Semi major axis: 7537 km
RCS: Unknown
Launch date: August 15, 1991
Source: Commonwealth of Independent States (former USSR) (CIS)
Launch site: PLESETSK MISSILE AND SPACE COMPLEX (PKMTR)

Note: This is SATELLITE DEBRIS
aabbcc
Your satellite tracking list
Your tracking list is empty




NASA's NSSDC Master Catalog

Two Line Element Set (TLE):
1 45276U 91056N   22142.95679609  .00001022  00000-0  22541-2 0  9998
2 45276  82.5872 102.2466 0048584 138.8409 221.6399 13.26783529109874
Source of the keplerian elements: AFSPC